TimeMDT,TemperatureF,Dew PointF,Humidity,Sea Level PressureIn,VisibilityMPH,Wind Direction,Wind SpeedMPH,Gust SpeedMPH,PrecipitationIn,Events,Conditions,WindDirDegrees,DateUTC
12:53 AM,37.0,21.0,52,30.12,10.0,WSW,4.6,-,N/A,,Clear,250,2013-03-12 06:53:00
1:53 AM,36.0,21.0,55,30.11,10.0,Calm,Calm,-,N/A,,Clear,0,2013-03-12 07:53:00
2:53 AM,36.0,21.9,57,30.12,10.0,West,4.6,-,N/A,,Clear,260,2013-03-12 08:53:00
3:53 AM,36.0,23.0,59,30.12,10.0,Calm,Calm,-,N/A,,Clear,0,2013-03-12 09:53:00
4:53 AM,36.0,21.9,57,30.12,10.0,WSW,3.5,-,N/A,,Clear,250,2013-03-12 10:53:00
5:53 AM,36.0,21.9,57,30.14,10.0,West,3.5,-,N/A,,Clear,280,2013-03-12 11:53:00
6:53 AM,34.0,21.9,61,30.17,10.0,West,5.8,-,N/A,,Clear,270,2013-03-12 12:53:00
7:53 AM,35.1,24.1,64,30.20,10.0,WSW,6.9,-,N/A,,Clear,250,2013-03-12 13:53:00
8:53 AM,37.9,25.0,60,30.22,10.0,Calm,Calm,-,N/A,,Clear,0,2013-03-12 14:53:00
9:53 AM,44.1,26.1,49,30.22,10.0,WSW,8.1,-,N/A,,Clear,240,2013-03-12 15:53:00
10:53 AM,50.0,25.0,38,30.21,10.0,West,4.6,-,N/A,,Clear,280,2013-03-12 16:53:00
11:53 AM,55.9,23.0,28,30.19,10.0,WNW,15.0,-,N/A,,Clear,290,2013-03-12 17:53:00
12:53 PM,57.9,24.1,27,30.16,10.0,WSW,10.4,19.6,N/A,,Clear,240,2013-03-12 18:53:00
1:53 PM,59.0,24.1,26,30.16,10.0,West,20.7,28.8,N/A,,Clear,270,2013-03-12 19:53:00
2:53 PM,61.0,25.0,25,30.13,10.0,West,15.0,24.2,N/A,,Clear,270,2013-03-12 20:53:00
3:53 PM,61.0,24.1,24,30.12,10.0,West,13.8,21.9,N/A,,Clear,270,2013-03-12 21:53:00
4:53 PM,62.1,25.0,24,30.12,10.0,West,15.0,24.2,N/A,,Clear,270,2013-03-12 22:53:00
5:53 PM,59.0,25.0,27,30.13,10.0,WNW,23.0,27.6,N/A,,Clear,290,2013-03-12 23:53:00
6:53 PM,57.0,25.0,29,30.16,10.0,West,16.1,23.0,N/A,,Clear,280,2013-03-13 00:53:00
7:53 PM,51.1,25.0,36,30.20,10.0,WSW,8.1,-,N/A,,Clear,250,2013-03-13 01:53:00
8:53 PM,48.0,25.0,41,30.22,10.0,West,4.6,-,N/A,,Clear,270,2013-03-13 02:53:00
9:53 PM,48.0,25.0,41,30.22,10.0,WNW,8.1,-,N/A,,Clear,300,2013-03-13 03:53:00
10:53 PM,46.0,25.0,44,30.23,10.0,Calm,Calm,-,N/A,,Clear,0,2013-03-13 04:53:00
11:53 PM,43.0,24.1,47,30.23,10.0,Calm,Calm,-,N/A,,Clear,0,2013-03-13 05:53:00